Time,TemperatureF,DewpointF,PressureIn,WindDirection,WindDirectionDegrees,WindSpeedMPH,WindSpeedGustMPH,Humidity,HourlyPrecipIn,Conditions,Clouds,dailyrainin,SoftwareType,DateUTC
2013-03-20 00:00:00,53.5,20.0,29.97,NNW,338,0.9,3.1,27,0.00,,,0.00,WUHU216HW,2013-03-20 04:00:00,
2013-03-20 00:05:00,53.3,19.9,29.97,NW,315,1.8,2.5,27,0.00,,,0.00,WUHU216HW,2013-03-20 04:05:00,
2013-03-20 00:10:00,53.1,17.8,29.97,WNW,293,2.7,2.7,25,0.00,,,0.00,WUHU216HW,2013-03-20 04:10:00,
2013-03-20 00:15:00,52.9,17.6,29.97,NNW,338,0.4,3.4,25,0.00,,,0.00,WUHU216HW,2013-03-20 04:15:00,
2013-03-20 00:20:00,52.7,17.5,29.97,NNW,338,0.9,3.8,25,0.00,,,0.00,WUHU216HW,2013-03-20 04:20:00,
2013-03-20 00:25:00,52.4,16.3,29.96,NW,315,2.0,3.8,24,0.00,,,0.00,WUHU216HW,2013-03-20 04:25:00,
2013-03-20 00:30:00,52.2,16.1,29.96,NW,315,2.0,3.4,24,0.00,,,0.00,WUHU216HW,2013-03-20 04:30:00,
2013-03-20 00:35:00,52.0,15.9,29.97,NW,315,1.6,3.4,24,0.00,,,0.00,WUHU216HW,2013-03-20 04:35:00,
2013-03-20 00:40:00,51.8,15.9,29.97,NNW,338,1.3,2.9,24,0.00,,,0.00,WUHU216HW,2013-03-20 04:40:00,
2013-03-20 00:45:00,51.5,15.5,29.96,NNW,338,2.0,3.6,24,0.00,,,0.00,WUHU216HW,2013-03-20 04:45:00,
2013-03-20 00:50:00,51.5,15.5,29.96,WNW,293,2.0,3.6,24,0.00,,,0.00,WUHU216HW,2013-03-20 04:50:00,
2013-03-20 00:55:00,51.5,16.5,29.96,NW,315,1.1,3.4,25,0.00,,,0.00,WUHU216HW,2013-03-20 04:55:00,
2013-03-20 01:00:00,51.3,16.3,29.97,NNW,338,0.4,2.0,25,0.00,,,0.00,WUHU216HW,2013-03-20 05:00:00,
2013-03-20 01:05:00,51.1,16.1,29.97,NW,315,2.0,2.2,25,0.00,,,0.00,WUHU216HW,2013-03-20 05:05:00,
2013-03-20 01:10:00,51.1,15.2,29.97,NNW,338,0.9,3.4,24,0.00,,,0.00,WUHU216HW,2013-03-20 05:10:00,
2013-03-20 01:15:00,50.9,16.0,29.97,North,0,1.1,3.4,25,0.00,,,0.00,WUHU216HW,2013-03-20 05:15:00,
2013-03-20 01:20:00,50.8,15.9,29.97,NNW,338,0.4,3.4,25,0.00,,,0.00,WUHU216HW,2013-03-20 05:20:00,
2013-03-20 01:25:00,50.6,15.7,29.97,NNW,338,0.2,1.3,25,0.00,,,0.00,WUHU216HW,2013-03-20 05:25:00,
2013-03-20 01:30:00,50.4,16.5,29.97,NW,315,0.0,1.8,26,0.00,,,0.00,WUHU216HW,2013-03-20 05:30:00,
2013-03-20 01:35:00,50.2,17.2,29.97,NNW,338,0.7,2.2,27,0.00,,,0.00,WUHU216HW,2013-03-20 05:35:00,
2013-03-20 01:40:00,50.2,17.2,29.97,North,0,0.0,2.5,27,0.00,,,0.00,WUHU216HW,2013-03-20 05:40:00,
2013-03-20 01:45:00,50.0,17.0,29.97,WSW,248,1.1,2.5,27,0.00,,,0.00,WUHU216HW,2013-03-20 05:45:00,
2013-03-20 01:50:00,49.9,16.9,29.98,WNW,293,0.4,4.0,27,0.00,,,0.00,WUHU216HW,2013-03-20 05:50:00,
2013-03-20 01:55:00,49.7,15.9,29.98,North,0,1.8,4.0,26,0.00,,,0.00,WUHU216HW,2013-03-20 05:55:00,
2013-03-20 02:00:00,49.7,16.7,29.98,NNW,338,1.6,3.8,27,0.00,,,0.00,WUHU216HW,2013-03-20 06:00:00,
2013-03-20 02:05:00,49.5,16.6,29.97,NNW,338,0.4,3.4,27,0.00,,,0.00,WUHU216HW,2013-03-20 06:05:00,
2013-03-20 02:10:00,49.5,17.6,29.98,WNW,293,1.8,2.2,28,0.00,,,0.00,WUHU216HW,2013-03-20 06:10:00,
2013-03-20 02:15:00,49.3,16.5,29.98,NW,315,1.8,1.8,27,0.00,,,0.00,WUHU216HW,2013-03-20 06:15:00,
2013-03-20 02:20:00,49.3,17.4,29.98,NNW,338,0.0,1.8,28,0.00,,,0.00,WUHU216HW,2013-03-20 06:20:00,
2013-03-20 02:25:00,49.1,17.2,29.98,West,270,0.7,1.8,28,0.00,,,0.00,WUHU216HW,2013-03-20 06:25:00,
2013-03-20 02:30:00,49.1,17.2,29.98,NW,315,0.7,1.1,28,0.00,,,0.00,WUHU216HW,2013-03-20 06:30:00,
2013-03-20 02:35:00,49.1,17.2,29.98,NNW,338,0.4,1.3,28,0.00,,,0.00,WUHU216HW,2013-03-20 06:35:00,
2013-03-20 02:40:00,48.8,16.9,29.98,NW,315,0.7,1.6,28,0.00,,,0.00,WUHU216HW,2013-03-20 06:40:00,
2013-03-20 02:45:00,48.8,16.9,29.98,NNW,338,0.7,1.6,28,0.00,,,0.00,WUHU216HW,2013-03-20 06:45:00,
2013-03-20 02:50:00,48.6,17.7,29.98,NW,315,1.1,1.6,29,0.00,,,0.00,WUHU216HW,2013-03-20 06:50:00,
2013-03-20 02:55:00,48.6,17.7,29.98,NW,315,1.1,1.3,29,0.00,,,0.00,WUHU216HW,2013-03-20 06:55:00,
2013-03-20 03:00:00,48.6,17.7,29.98,WNW,293,0.4,1.3,29,0.00,,,0.00,WUHU216HW,2013-03-20 07:00:00,
2013-03-20 03:05:00,48.4,18.6,29.98,WNW,293,0.0,1.1,30,0.00,,,0.00,WUHU216HW,2013-03-20 07:05:00,
2013-03-20 03:10:00,48.2,18.4,29.98,NW,315,0.4,1.1,30,0.00,,,0.00,WUHU216HW,2013-03-20 07:10:00,
2013-03-20 03:15:00,47.9,18.0,29.98,NW,315,0.4,1.1,30,0.00,,,0.00,WUHU216HW,2013-03-20 07:15:00,
2013-03-20 03:20:00,47.7,17.9,29.98,NW,315,0.4,1.1,30,0.00,,,0.00,WUHU216HW,2013-03-20 07:20:00,
2013-03-20 03:25:00,47.5,17.7,29.98,NW,315,0.0,1.1,30,0.00,,,0.00,WUHU216HW,2013-03-20 07:25:00,
2013-03-20 03:30:00,47.3,17.6,29.98,NW,315,0.2,1.1,30,0.00,,,0.00,WUHU216HW,2013-03-20 07:30:00,
2013-03-20 03:35:00,47.2,17.4,29.98,NNW,338,0.0,1.1,30,0.00,,,0.00,WUHU216HW,2013-03-20 07:35:00,
2013-03-20 03:40:00,46.8,17.1,29.98,NNW,338,0.0,0.9,30,0.00,,,0.00,WUHU216HW,2013-03-20 07:40:00,
2013-03-20 03:45:00,46.6,16.9,29.98,NNW,338,0.0,0.7,30,0.00,,,0.00,WUHU216HW,2013-03-20 07:45:00,
2013-03-20 03:50:00,46.4,17.4,29.97,NW,315,0.4,0.9,31,0.00,,,0.00,WUHU216HW,2013-03-20 07:50:00,
2013-03-20 03:55:00,46.4,18.1,29.97,NW,315,0.0,0.9,32,0.00,,,0.00,WUHU216HW,2013-03-20 07:55:00,
2013-03-20 04:00:00,46.3,18.5,29.97,NW,315,0.0,0.7,33,0.00,,,0.00,WUHU216HW,2013-03-20 08:00:00,
2013-03-20 04:05:00,46.1,17.7,29.97,NW,315,0.0,0.4,32,0.00,,,0.00,WUHU216HW,2013-03-20 08:05:00,
2013-03-20 04:10:00,45.9,16.9,29.97,NW,315,0.0,0.4,31,0.00,,,0.00,WUHU216HW,2013-03-20 08:10:00,
2013-03-20 04:15:00,45.4,16.5,29.98,NNW,338,0.0,0.4,31,0.00,,,0.00,WUHU216HW,2013-03-20 08:15:00,
2013-03-20 04:20:00,45.2,16.9,29.98,NNW,338,0.0,0.4,32,0.00,,,0.00,WUHU216HW,2013-03-20 08:20:00,
2013-03-20 04:25:00,45.0,17.5,29.98,NW,315,0.0,0.4,33,0.00,,,0.00,WUHU216HW,2013-03-20 08:25:00,
2013-03-20 04:30:00,45.0,17.5,29.98,NW,315,0.4,0.7,33,0.00,,,0.00,WUHU216HW,2013-03-20 08:30:00,
2013-03-20 04:35:00,45.0,17.5,29.98,NNW,338,0.0,0.7,33,0.00,,,0.00,WUHU216HW,2013-03-20 08:35:00,
2013-03-20 04:40:00,44.8,18.6,29.98,NNW,338,0.0,0.4,35,0.00,,,0.00,WUHU216HW,2013-03-20 08:40:00,
2013-03-20 04:45:00,44.6,19.1,29.98,NNW,338,0.0,0.2,36,0.00,,,0.00,WUHU216HW,2013-03-20 08:45:00,
2013-03-20 04:50:00,44.5,19.0,29.97,NNW,338,0.0,0.2,36,0.00,,,0.00,WUHU216HW,2013-03-20 08:50:00,
2013-03-20 04:55:00,44.3,19.4,29.97,NW,315,0.9,0.9,37,0.00,,,0.00,WUHU216HW,2013-03-20 08:55:00,
2013-03-20 05:00:00,44.3,19.4,29.98,WNW,293,0.2,0.9,37,0.00,,,0.00,WUHU216HW,2013-03-20 09:00:00,
2013-03-20 05:05:00,44.1,18.6,29.98,NNW,338,0.7,0.9,36,0.00,,,0.00,WUHU216HW,2013-03-20 09:05:00,
2013-03-20 05:10:00,43.7,17.0,29.97,NW,315,0.2,1.1,34,0.00,,,0.00,WUHU216HW,2013-03-20 09:10:00,
2013-03-20 05:15:00,43.6,16.1,29.98,NNW,338,0.9,1.1,33,0.00,,,0.00,WUHU216HW,2013-03-20 09:15:00,
2013-03-20 05:20:00,43.7,16.3,29.98,NW,315,0.7,1.1,33,0.00,,,0.00,WUHU216HW,2013-03-20 09:20:00,
2013-03-20 05:25:00,43.9,17.1,29.98,North,0,0.4,1.1,34,0.00,,,0.00,WUHU216HW,2013-03-20 09:25:00,
2013-03-20 05:30:00,43.9,16.5,29.98,NNW,338,0.4,1.3,33,0.00,,,0.00,WUHU216HW,2013-03-20 09:30:00,
2013-03-20 05:35:00,43.9,15.9,29.98,North,0,1.1,2.5,32,0.00,,,0.00,WUHU216HW,2013-03-20 09:35:00,
2013-03-20 05:40:00,43.9,15.9,29.98,NNW,338,0.2,2.5,32,0.00,,,0.00,WUHU216HW,2013-03-20 09:40:00,
2013-03-20 05:45:00,43.9,15.9,29.98,NW,315,0.2,1.3,32,0.00,,,0.00,WUHU216HW,2013-03-20 09:45:00,
2013-03-20 05:50:00,43.9,15.9,29.99,North,0,1.1,1.8,32,0.00,,,0.00,WUHU216HW,2013-03-20 09:50:00,
2013-03-20 05:55:00,43.9,15.9,29.98,NNW,338,0.0,1.8,32,0.00,,,0.00,WUHU216HW,2013-03-20 09:55:00,
2013-03-20 06:00:00,43.7,15.7,29.99,NNE,23,0.4,1.1,32,0.00,,,0.00,WUHU216HW,2013-03-20 10:00:00,
2013-03-20 06:05:00,43.7,15.7,29.99,NNW,338,0.4,1.3,32,0.00,,,0.00,WUHU216HW,2013-03-20 10:05:00,
2013-03-20 06:10:00,43.7,16.3,29.99,NNW,338,0.4,1.3,33,0.00,,,0.00,WUHU216HW,2013-03-20 10:10:00,
2013-03-20 06:15:00,43.7,15.7,29.99,North,0,0.2,1.1,32,0.00,,,0.00,WUHU216HW,2013-03-20 10:15:00,
2013-03-20 06:20:00,43.6,15.5,29.99,NNW,338,1.1,1.8,32,0.00,,,0.00,WUHU216HW,2013-03-20 10:20:00,
2013-03-20 06:25:00,43.6,15.5,30.00,NW,315,0.7,1.8,32,0.00,,,0.00,WUHU216HW,2013-03-20 10:25:00,
2013-03-20 06:30:00,43.4,15.3,30.00,NNW,338,0.0,1.6,32,0.00,,,0.00,WUHU216HW,2013-03-20 10:30:00,
2013-03-20 06:35:00,43.4,16.0,30.00,NNW,338,0.0,1.1,33,0.00,,,0.00,WUHU216HW,2013-03-20 10:35:00,
2013-03-20 06:40:00,43.4,16.0,30.00,NNW,338,0.0,1.1,33,0.00,,,0.00,WUHU216HW,2013-03-20 10:40:00,
2013-03-20 06:45:00,43.4,16.0,30.00,SW,225,0.0,0.0,33,0.00,,,0.00,WUHU216HW,2013-03-20 10:45:00,
2013-03-20 06:50:00,43.4,16.7,30.00,SSW,203,0.0,0.0,34,0.00,,,0.00,WUHU216HW,2013-03-20 10:50:00,
2013-03-20 06:55:00,43.4,17.3,30.01,SSW,203,0.0,0.0,35,0.00,,,0.00,WUHU216HW,2013-03-20 10:55:00,
2013-03-20 07:00:00,43.2,17.2,30.01,SSE,158,0.0,0.0,35,0.00,,,0.00,WUHU216HW,2013-03-20 11:00:00,
2013-03-20 07:05:00,43.2,17.2,30.01,SSE,158,0.0,0.0,35,0.00,,,0.00,WUHU216HW,2013-03-20 11:05:00,
2013-03-20 07:10:00,43.0,17.6,30.01,SSE,158,0.0,0.0,36,0.00,,,0.00,WUHU216HW,2013-03-20 11:10:00,
2013-03-20 07:15:00,43.0,18.4,30.01,SE,135,0.0,0.4,37,0.00,,,0.00,WUHU216HW,2013-03-20 11:15:00,
2013-03-20 07:20:00,42.8,18.2,30.02,SE,135,0.0,0.4,37,0.00,,,0.00,WUHU216HW,2013-03-20 11:20:00,
2013-03-20 07:25:00,42.8,18.8,30.02,SE,135,0.0,0.2,38,0.00,,,0.00,WUHU216HW,2013-03-20 11:25:00,
2013-03-20 07:30:00,42.7,18.6,30.02,SE,135,0.0,0.0,38,0.00,,,0.00,WUHU216HW,2013-03-20 11:30:00,
2013-03-20 07:35:00,42.7,18.6,30.02,SE,135,0.0,0.0,38,0.00,,,0.00,WUHU216HW,2013-03-20 11:35:00,
2013-03-20 07:40:00,42.7,18.6,30.03,SE,135,0.0,0.0,38,0.00,,,0.00,WUHU216HW,2013-03-20 11:40:00,
2013-03-20 07:45:00,42.7,19.4,30.03,SE,135,0.0,0.0,39,0.00,,,0.00,WUHU216HW,2013-03-20 11:45:00,
2013-03-20 07:50:00,42.7,19.4,30.03,SE,135,0.0,0.0,39,0.00,,,0.00,WUHU216HW,2013-03-20 11:50:00,
2013-03-20 07:55:00,42.7,20.0,30.03,SE,135,0.0,0.2,40,0.00,,,0.00,WUHU216HW,2013-03-20 11:55:00,
2013-03-20 08:00:00,42.7,20.0,30.04,SSW,203,0.0,0.2,40,0.00,,,0.00,WUHU216HW,2013-03-20 12:00:00,
2013-03-20 08:05:00,42.7,20.0,30.04,SSW,203,0.0,0.0,40,0.00,,,0.00,WUHU216HW,2013-03-20 12:05:00,
2013-03-20 08:10:00,42.8,20.2,30.04,SSE,158,0.0,0.0,40,0.00,,,0.00,WUHU216HW,2013-03-20 12:10:00,
2013-03-20 08:15:00,42.8,20.2,30.04,SSE,158,0.0,0.0,40,0.00,,,0.00,WUHU216HW,2013-03-20 12:15:00,
2013-03-20 08:20:00,42.8,20.7,30.04,NW,315,0.2,0.4,41,0.00,,,0.00,WUHU216HW,2013-03-20 12:20:00,
2013-03-20 08:25:00,43.2,20.5,30.04,NW,315,0.0,0.4,40,0.00,,,0.00,WUHU216HW,2013-03-20 12:25:00,
2013-03-20 08:30:00,43.2,19.8,30.04,WNW,293,0.4,0.9,39,0.00,,,0.00,WUHU216HW,2013-03-20 12:30:00,
2013-03-20 08:35:00,43.4,20.0,30.05,WNW,293,0.0,0.9,39,0.00,,,0.00,WUHU216HW,2013-03-20 12:35:00,
2013-03-20 08:40:00,43.6,19.4,30.05,North,0,0.9,0.9,38,0.00,,,0.00,WUHU216HW,2013-03-20 12:40:00,
2013-03-20 08:45:00,43.6,19.4,30.05,NNW,338,0.0,0.9,38,0.00,,,0.00,WUHU216HW,2013-03-20 12:45:00,
2013-03-20 08:50:00,43.6,19.4,30.05,WNW,293,0.4,1.1,38,0.00,,,0.00,WUHU216HW,2013-03-20 12:50:00,
2013-03-20 08:55:00,43.7,19.6,30.06,West,270,0.2,1.3,38,0.00,,,0.00,WUHU216HW,2013-03-20 12:55:00,
2013-03-20 09:00:00,43.9,19.8,30.06,West,270,0.7,1.3,38,0.00,,,0.00,WUHU216HW,2013-03-20 13:00:00,
2013-03-20 09:05:00,44.3,19.4,30.07,WNW,293,1.1,2.5,37,0.00,,,0.00,WUHU216HW,2013-03-20 13:05:00,
2013-03-20 09:10:00,44.3,18.1,30.06,North,0,0.4,4.0,35,0.00,,,0.00,WUHU216HW,2013-03-20 13:10:00,
2013-03-20 09:15:00,44.3,18.1,30.06,SW,225,1.3,4.0,35,0.00,,,0.00,WUHU216HW,2013-03-20 13:15:00,
2013-03-20 09:20:00,44.5,18.3,30.06,West,270,2.5,2.5,35,0.00,,,0.00,WUHU216HW,2013-03-20 13:20:00,
2013-03-20 09:25:00,44.6,17.8,30.07,NNW,338,0.0,2.5,34,0.00,,,0.00,WUHU216HW,2013-03-20 13:25:00,
2013-03-20 09:30:00,44.6,17.1,30.07,WNW,293,1.8,2.5,33,0.00,,,0.00,WUHU216HW,2013-03-20 13:30:00,
2013-03-20 09:35:00,44.8,18.6,30.07,West,270,0.4,4.0,35,0.00,,,0.00,WUHU216HW,2013-03-20 13:35:00,
2013-03-20 09:40:00,45.0,17.5,30.06,NW,315,1.3,4.0,33,0.00,,,0.00,WUHU216HW,2013-03-20 13:40:00,
2013-03-20 09:45:00,45.2,18.3,30.06,WNW,293,1.1,2.2,34,0.00,,,0.00,WUHU216HW,2013-03-20 13:45:00,
2013-03-20 09:50:00,45.4,17.7,30.07,WNW,293,1.3,2.5,33,0.00,,,0.00,WUHU216HW,2013-03-20 13:50:00,
2013-03-20 09:55:00,45.7,18.1,30.07,West,270,2.2,3.8,33,0.00,,,0.00,WUHU216HW,2013-03-20 13:55:00,
2013-03-20 10:00:00,45.7,17.5,30.07,NNW,338,0.7,3.8,32,0.00,,,0.00,WUHU216HW,2013-03-20 14:00:00,
2013-03-20 10:05:00,45.7,18.1,30.07,NNE,23,0.0,2.0,33,0.00,,,0.00,WUHU216HW,2013-03-20 14:05:00,
2013-03-20 10:10:00,46.1,18.5,30.06,NNW,338,0.4,2.5,33,0.00,,,0.00,WUHU216HW,2013-03-20 14:10:00,
2013-03-20 10:15:00,46.4,18.7,30.06,WSW,248,1.1,3.1,33,0.00,,,0.00,WUHU216HW,2013-03-20 14:15:00,
2013-03-20 10:20:00,46.6,18.9,30.06,NW,315,1.3,3.1,33,0.00,,,0.00,WUHU216HW,2013-03-20 14:20:00,
2013-03-20 10:25:00,46.6,16.9,30.07,North,0,2.5,3.1,30,0.00,,,0.00,WUHU216HW,2013-03-20 14:25:00,
2013-03-20 10:30:00,46.4,18.1,30.07,NNW,338,0.7,3.1,32,0.00,,,0.00,WUHU216HW,2013-03-20 14:30:00,
2013-03-20 10:35:00,46.6,18.3,30.07,NNW,338,0.7,2.9,32,0.00,,,0.00,WUHU216HW,2013-03-20 14:35:00,
2013-03-20 10:40:00,46.8,18.4,30.07,SW,225,1.1,2.0,32,0.00,,,0.00,WUHU216HW,2013-03-20 14:40:00,
2013-03-20 10:45:00,47.2,19.4,30.07,West,270,1.8,2.5,33,0.00,,,0.00,WUHU216HW,2013-03-20 14:45:00,
2013-03-20 10:50:00,47.3,16.7,30.07,North,0,4.3,5.1,29,0.00,,,0.00,WUHU216HW,2013-03-20 14:50:00,
2013-03-20 10:55:00,47.2,18.1,30.06,NE,45,1.3,5.1,31,0.00,,,0.00,WUHU216HW,2013-03-20 14:55:00,
2013-03-20 11:00:00,47.5,19.1,30.06,WSW,248,2.2,2.9,32,0.00,,,0.00,WUHU216HW,2013-03-20 15:00:00,
2013-03-20 11:05:00,47.7,18.5,30.06,West,270,1.6,2.5,31,0.00,,,0.00,WUHU216HW,2013-03-20 15:05:00,
2013-03-20 11:10:00,47.9,19.4,30.06,North,0,0.0,2.5,32,0.00,,,0.00,WUHU216HW,2013-03-20 15:10:00,
2013-03-20 11:15:00,48.2,19.7,30.06,WSW,248,0.4,2.2,32,0.00,,,0.00,WUHU216HW,2013-03-20 15:15:00,
2013-03-20 11:20:00,48.6,20.0,30.06,North,0,0.0,2.5,32,0.00,,,0.00,WUHU216HW,2013-03-20 15:20:00,
2013-03-20 11:25:00,48.4,18.6,30.06,NNW,338,0.7,3.4,30,0.00,,,0.00,WUHU216HW,2013-03-20 15:25:00,
2013-03-20 11:30:00,48.2,19.0,30.06,West,270,0.2,3.4,31,0.00,,,0.00,WUHU216HW,2013-03-20 15:30:00,
2013-03-20 11:35:00,48.6,19.4,30.06,West,270,2.9,2.9,31,0.00,,,0.00,WUHU216HW,2013-03-20 15:35:00,
2013-03-20 11:40:00,48.8,20.2,30.05,SW,225,0.0,2.9,32,0.00,,,0.00,WUHU216HW,2013-03-20 15:40:00,
2013-03-20 11:45:00,49.1,19.7,30.05,NNW,338,1.6,2.9,31,0.00,,,0.00,WUHU216HW,2013-03-20 15:45:00,
2013-03-20 11:50:00,49.1,19.7,30.05,ENE,68,1.6,1.8,31,0.00,,,0.00,WUHU216HW,2013-03-20 15:50:00,
2013-03-20 11:55:00,49.3,19.3,30.05,ENE,68,1.1,1.6,30,0.00,,,0.00,WUHU216HW,2013-03-20 15:55:00,
2013-03-20 12:00:00,49.3,19.3,30.04,SW,225,0.0,1.6,30,0.00,,,0.00,WUHU216HW,2013-03-20 16:00:00,
2013-03-20 12:05:00,49.3,19.3,30.04,SW,225,1.8,1.8,30,0.00,,,0.00,WUHU216HW,2013-03-20 16:05:00,
2013-03-20 12:10:00,49.5,19.4,30.04,West,270,0.4,2.2,30,0.00,,,0.00,WUHU216HW,2013-03-20 16:10:00,
2013-03-20 12:15:00,49.9,20.4,30.03,SE,135,2.0,2.2,31,0.00,,,0.00,WUHU216HW,2013-03-20 16:15:00,
2013-03-20 12:20:00,50.2,20.6,30.03,South,180,1.1,2.7,31,0.00,,,0.00,WUHU216HW,2013-03-20 16:20:00,
2013-03-20 12:25:00,50.6,20.3,30.03,ESE,113,0.0,2.7,30,0.00,,,0.00,WUHU216HW,2013-03-20 16:25:00,
2013-03-20 12:30:00,50.8,19.5,30.03,WSW,248,2.2,3.6,29,0.00,,,0.00,WUHU216HW,2013-03-20 16:30:00,
2013-03-20 12:35:00,50.8,20.4,30.03,SE,135,3.8,3.8,30,0.00,,,0.00,WUHU216HW,2013-03-20 16:35:00,
2013-03-20 12:40:00,51.1,21.4,30.03,NW,315,2.2,3.8,31,0.00,,,0.00,WUHU216HW,2013-03-20 16:40:00,
2013-03-20 12:45:00,51.5,20.2,30.03,West,270,1.8,3.8,29,0.00,,,0.00,WUHU216HW,2013-03-20 16:45:00,
2013-03-20 12:50:00,51.8,21.4,30.02,SW,225,0.4,3.4,30,0.00,,,0.00,WUHU216HW,2013-03-20 16:50:00,
2013-03-20 12:55:00,51.3,16.3,30.02,North,0,3.1,4.0,25,0.00,,,0.00,WUHU216HW,2013-03-20 16:55:00,
2013-03-20 13:00:00,51.1,18.9,30.02,NE,45,0.0,4.0,28,0.00,,,0.00,WUHU216HW,2013-03-20 17:00:00,
2013-03-20 13:05:00,51.5,19.3,30.01,North,0,0.7,3.1,28,0.00,,,0.00,WUHU216HW,2013-03-20 17:05:00,
2013-03-20 13:10:00,51.8,19.5,30.00,NNE,23,0.2,2.0,28,0.00,,,0.00,WUHU216HW,2013-03-20 17:10:00,
2013-03-20 13:15:00,52.4,20.0,30.00,WSW,248,2.5,3.1,28,0.00,,,0.00,WUHU216HW,2013-03-20 17:15:00,
2013-03-20 13:20:00,53.3,19.9,30.00,NW,315,2.2,4.5,27,0.00,,,0.00,WUHU216HW,2013-03-20 17:20:00,
2013-03-20 13:25:00,53.8,20.4,30.00,NNW,338,1.1,4.5,27,0.00,,,0.00,WUHU216HW,2013-03-20 17:25:00,
2013-03-20 13:30:00,53.8,18.5,30.00,NNE,23,3.4,3.8,25,0.00,,,0.00,WUHU216HW,2013-03-20 17:30:00,
2013-03-20 13:35:00,53.1,17.8,29.99,West,270,0.7,4.3,25,0.00,,,0.00,WUHU216HW,2013-03-20 17:35:00,
2013-03-20 13:40:00,53.1,19.7,29.99,WSW,248,0.4,4.3,27,0.00,,,0.00,WUHU216HW,2013-03-20 17:40:00,
2013-03-20 13:45:00,53.6,19.3,29.98,WSW,248,2.0,4.3,26,0.00,,,0.00,WUHU216HW,2013-03-20 17:45:00,
2013-03-20 13:50:00,54.0,20.5,29.97,South,180,3.6,4.0,27,0.00,,,0.00,WUHU216HW,2013-03-20 17:50:00,
2013-03-20 13:55:00,54.2,17.8,29.97,SW,225,1.1,4.7,24,0.00,,,0.00,WUHU216HW,2013-03-20 17:55:00,
2013-03-20 14:00:00,54.4,18.9,29.96,NW,315,2.5,4.7,25,0.00,,,0.00,WUHU216HW,2013-03-20 18:00:00,
2013-03-20 14:05:00,54.7,21.1,29.96,WNW,293,2.5,3.6,27,0.00,,,0.00,WUHU216HW,2013-03-20 18:05:00,
2013-03-20 14:10:00,54.9,21.3,29.96,SW,225,2.9,3.6,27,0.00,,,0.00,WUHU216HW,2013-03-20 18:10:00,
2013-03-20 14:15:00,55.1,21.3,29.95,SSE,158,1.1,4.3,27,0.00,,,0.00,WUHU216HW,2013-03-20 18:15:00,
2013-03-20 14:20:00,55.1,20.4,29.95,WSW,248,2.5,4.3,26,0.00,,,0.00,WUHU216HW,2013-03-20 18:20:00,
2013-03-20 14:25:00,55.1,18.5,29.94,South,180,3.1,4.0,24,0.00,,,0.00,WUHU216HW,2013-03-20 18:25:00,
2013-03-20 14:30:00,55.4,20.7,29.94,SSW,203,0.2,4.0,26,0.00,,,0.00,WUHU216HW,2013-03-20 18:30:00,
2013-03-20 14:35:00,55.4,18.9,29.93,SW,225,1.1,3.1,24,0.00,,,0.00,WUHU216HW,2013-03-20 18:35:00,
2013-03-20 14:40:00,55.6,21.9,29.93,West,270,1.3,3.1,27,0.00,,,0.00,WUHU216HW,2013-03-20 18:40:00,
2013-03-20 14:45:00,56.2,22.3,29.93,SSW,203,2.0,4.7,27,0.00,,,0.00,WUHU216HW,2013-03-20 18:45:00,
2013-03-20 14:50:00,56.2,22.3,29.93,SE,135,1.8,4.7,27,0.00,,,0.00,WUHU216HW,2013-03-20 18:50:00,
2013-03-20 14:55:00,56.5,20.7,29.92,West,270,2.9,3.4,25,0.00,,,0.00,WUHU216HW,2013-03-20 18:55:00,
2013-03-20 15:00:00,56.5,21.7,29.92,West,270,1.6,3.4,26,0.00,,,0.00,WUHU216HW,2013-03-20 19:00:00,
2013-03-20 15:05:00,56.9,21.1,29.91,SW,225,4.0,4.0,25,0.00,,,0.00,WUHU216HW,2013-03-20 19:05:00,
2013-03-20 15:10:00,56.7,21.8,29.91,WNW,293,1.8,4.0,26,0.00,,,0.00,WUHU216HW,2013-03-20 19:10:00,
2013-03-20 15:15:00,56.9,22.0,29.91,WNW,293,1.6,4.7,26,0.00,,,0.00,WUHU216HW,2013-03-20 19:15:00,
2013-03-20 15:20:00,56.7,20.9,29.90,SW,225,2.7,4.7,25,0.00,,,0.00,WUHU216HW,2013-03-20 19:20:00,
2013-03-20 15:25:00,56.7,19.9,29.90,West,270,3.6,6.0,24,0.00,,,0.00,WUHU216HW,2013-03-20 19:25:00,
2013-03-20 15:30:00,56.7,20.9,29.90,WSW,248,6.9,6.9,25,0.00,,,0.00,WUHU216HW,2013-03-20 19:30:00,
2013-03-20 15:35:00,56.7,19.9,29.89,West,270,4.0,6.9,24,0.00,,,0.00,WUHU216HW,2013-03-20 19:35:00,
2013-03-20 15:40:00,56.7,19.9,29.89,WSW,248,4.3,6.9,24,0.00,,,0.00,WUHU216HW,2013-03-20 19:40:00,
2013-03-20 15:45:00,56.7,20.9,29.88,SSW,203,2.0,6.9,25,0.00,,,0.00,WUHU216HW,2013-03-20 19:45:00,
2013-03-20 15:50:00,56.7,20.9,29.87,WSW,248,0.7,4.7,25,0.00,,,0.00,WUHU216HW,2013-03-20 19:50:00,
2013-03-20 15:55:00,57.1,21.2,29.87,SW,225,0.4,2.5,25,0.00,,,0.00,WUHU216HW,2013-03-20 19:55:00,
2013-03-20 16:00:00,57.2,21.3,29.87,WNW,293,3.8,4.5,25,0.00,,,0.00,WUHU216HW,2013-03-20 20:00:00,
2013-03-20 16:05:00,57.2,21.3,29.87,West,270,2.9,5.8,25,0.00,,,0.00,WUHU216HW,2013-03-20 20:05:00,
2013-03-20 16:10:00,57.4,21.5,29.86,SW,225,3.4,5.8,25,0.00,,,0.00,WUHU216HW,2013-03-20 20:10:00,
2013-03-20 16:15:00,57.4,22.4,29.86,NW,315,1.8,5.6,26,0.00,,,0.00,WUHU216HW,2013-03-20 20:15:00,
2013-03-20 16:20:00,57.4,23.4,29.85,SE,135,3.1,5.6,27,0.00,,,0.00,WUHU216HW,2013-03-20 20:20:00,
2013-03-20 16:25:00,57.6,23.6,29.85,WNW,293,2.5,4.3,27,0.00,,,0.00,WUHU216HW,2013-03-20 20:25:00,
2013-03-20 16:30:00,57.8,23.7,29.85,South,180,0.4,5.4,27,0.00,,,0.00,WUHU216HW,2013-03-20 20:30:00,
2013-03-20 16:35:00,57.6,21.6,29.85,WSW,248,3.1,5.4,25,0.00,,,0.00,WUHU216HW,2013-03-20 20:35:00,
2013-03-20 16:40:00,57.6,21.6,29.84,NW,315,1.8,4.0,25,0.00,,,0.00,WUHU216HW,2013-03-20 20:40:00,
2013-03-20 16:45:00,57.2,20.3,29.84,West,270,1.8,4.0,24,0.00,,,0.00,WUHU216HW,2013-03-20 20:45:00,
2013-03-20 16:50:00,57.1,21.2,29.84,SW,225,0.7,4.0,25,0.00,,,0.00,WUHU216HW,2013-03-20 20:50:00,
2013-03-20 16:55:00,56.7,20.9,29.83,West,270,1.6,4.0,25,0.00,,,0.00,WUHU216HW,2013-03-20 20:55:00,
2013-03-20 17:00:00,56.7,20.9,29.83,WSW,248,2.5,4.0,25,0.00,,,0.00,WUHU216HW,2013-03-20 21:00:00,
2013-03-20 17:05:00,56.9,22.0,29.83,SSE,158,4.9,4.9,26,0.00,,,0.00,WUHU216HW,2013-03-20 21:05:00,
2013-03-20 17:10:00,56.9,21.1,29.82,SW,225,0.4,4.9,25,0.00,,,0.00,WUHU216HW,2013-03-20 21:10:00,
2013-03-20 17:15:00,56.7,20.9,29.82,WSW,248,1.1,4.9,25,0.00,,,0.00,WUHU216HW,2013-03-20 21:15:00,
2013-03-20 17:20:00,56.7,20.9,29.82,West,270,1.1,5.4,25,0.00,,,0.00,WUHU216HW,2013-03-20 21:20:00,
2013-03-20 17:25:00,56.7,20.9,29.82,SE,135,0.9,5.4,25,0.00,,,0.00,WUHU216HW,2013-03-20 21:25:00,
2013-03-20 17:30:00,56.7,20.9,29.82,West,270,3.1,3.1,25,0.00,,,0.00,WUHU216HW,2013-03-20 21:30:00,
2013-03-20 17:35:00,56.5,20.7,29.82,SSW,203,1.1,3.1,25,0.00,,,0.00,WUHU216HW,2013-03-20 21:35:00,
2013-03-20 17:40:00,56.5,20.7,29.81,SSW,203,1.3,3.4,25,0.00,,,0.00,WUHU216HW,2013-03-20 21:40:00,
2013-03-20 17:45:00,56.5,19.8,29.82,West,270,3.1,3.4,24,0.00,,,0.00,WUHU216HW,2013-03-20 21:45:00,
2013-03-20 17:50:00,56.2,20.4,29.82,WNW,293,3.1,5.4,25,0.00,,,0.00,WUHU216HW,2013-03-20 21:50:00,
2013-03-20 17:55:00,56.0,21.3,29.82,SE,135,0.4,5.4,26,0.00,,,0.00,WUHU216HW,2013-03-20 21:55:00,
2013-03-20 18:00:00,56.0,20.3,29.82,WSW,248,3.4,4.7,25,0.00,,,0.00,WUHU216HW,2013-03-20 22:00:00,
2013-03-20 18:05:00,55.6,20.0,29.82,West,270,2.2,4.7,25,0.00,,,0.00,WUHU216HW,2013-03-20 22:05:00,
2013-03-20 18:10:00,55.6,20.0,29.82,SW,225,3.6,4.0,25,0.00,,,0.00,WUHU216HW,2013-03-20 22:10:00,
2013-03-20 18:15:00,55.4,19.8,29.82,SSW,203,0.2,4.0,25,0.00,,,0.00,WUHU216HW,2013-03-20 22:15:00,
2013-03-20 18:20:00,55.3,21.5,29.82,West,270,0.7,3.6,27,0.00,,,0.00,WUHU216HW,2013-03-20 22:20:00,
2013-03-20 18:25:00,55.4,21.7,29.82,WSW,248,0.9,2.9,27,0.00,,,0.00,WUHU216HW,2013-03-20 22:25:00,
2013-03-20 18:30:00,55.3,19.6,29.82,SW,225,2.5,2.9,25,0.00,,,0.00,WUHU216HW,2013-03-20 22:30:00,
2013-03-20 18:35:00,55.1,19.5,29.82,West,270,0.7,3.8,25,0.00,,,0.00,WUHU216HW,2013-03-20 22:35:00,
2013-03-20 18:40:00,54.9,21.3,29.82,West,270,1.3,3.8,27,0.00,,,0.00,WUHU216HW,2013-03-20 22:40:00,
2013-03-20 18:45:00,54.9,21.3,29.82,West,270,1.8,2.7,27,0.00,,,0.00,WUHU216HW,2013-03-20 22:45:00,
2013-03-20 18:50:00,54.7,21.1,29.82,WSW,248,1.6,2.2,27,0.00,,,0.00,WUHU216HW,2013-03-20 22:50:00,
2013-03-20 18:55:00,54.5,21.9,29.82,NW,315,1.1,2.2,28,0.00,,,0.00,WUHU216HW,2013-03-20 22:55:00,
2013-03-20 19:00:00,54.5,21.9,29.82,SW,225,0.2,2.2,28,0.00,,,0.00,WUHU216HW,2013-03-20 23:00:00,
2013-03-20 19:05:00,54.4,20.8,29.82,WSW,248,0.9,2.0,27,0.00,,,0.00,WUHU216HW,2013-03-20 23:05:00,
2013-03-20 19:10:00,54.2,21.6,29.82,SW,225,1.6,2.9,28,0.00,,,0.00,WUHU216HW,2013-03-20 23:10:00,
2013-03-20 19:15:00,54.0,21.4,29.82,SW,225,0.0,2.9,28,0.00,,,0.00,WUHU216HW,2013-03-20 23:15:00,
2013-03-20 19:20:00,53.8,21.2,29.82,SSE,158,0.0,1.1,28,0.00,,,0.00,WUHU216HW,2013-03-20 23:20:00,
2013-03-20 19:25:00,53.6,21.2,29.82,SSE,158,0.0,0.4,28,0.00,,,0.00,WUHU216HW,2013-03-20 23:25:00,
2013-03-20 19:30:00,53.6,21.2,29.81,SSE,158,0.4,0.4,28,0.00,,,0.00,WUHU216HW,2013-03-20 23:30:00,
2013-03-20 19:35:00,53.3,20.8,29.81,West,270,0.0,0.9,28,0.00,,,0.00,WUHU216HW,2013-03-20 23:35:00,
2013-03-20 19:40:00,53.1,21.6,29.81,SW,225,0.0,0.9,29,0.00,,,0.00,WUHU216HW,2013-03-20 23:40:00,
2013-03-20 19:45:00,52.9,21.4,29.81,SSW,203,0.0,0.4,29,0.00,,,0.00,WUHU216HW,2013-03-20 23:45:00,
2013-03-20 19:50:00,52.7,21.3,29.81,South,180,0.0,0.4,29,0.00,,,0.00,WUHU216HW,2013-03-20 23:50:00,
2013-03-20 19:55:00,52.6,22.1,29.80,South,180,0.0,0.4,30,0.00,,,0.00,WUHU216HW,2013-03-20 23:55:00,
2013-03-20 20:00:00,52.4,22.6,29.80,South,180,0.0,0.0,31,0.00,,,0.00,WUHU216HW,2013-03-21 00:00:00,
2013-03-20 20:05:00,52.2,22.4,29.80,South,180,0.2,0.4,31,0.00,,,0.00,WUHU216HW,2013-03-21 00:05:00,
2013-03-20 20:10:00,51.7,22.0,29.80,SE,135,0.2,0.4,31,0.00,,,0.00,WUHU216HW,2013-03-21 00:10:00,
2013-03-20 20:15:00,51.3,21.6,29.80,ESE,113,0.0,0.4,31,0.00,,,0.00,WUHU216HW,2013-03-21 00:15:00,
2013-03-20 20:20:00,50.9,22.0,29.80,ESE,113,0.0,0.4,32,0.00,,,0.00,WUHU216HW,2013-03-21 00:20:00,
2013-03-20 20:25:00,50.8,22.5,29.80,ESE,113,0.0,0.4,33,0.00,,,0.00,WUHU216HW,2013-03-21 00:25:00,
2013-03-20 20:30:00,50.4,22.1,29.80,ESE,113,0.0,0.4,33,0.00,,,0.00,WUHU216HW,2013-03-21 00:30:00,
2013-03-20 20:35:00,50.0,22.5,29.80,ESE,113,0.0,0.2,34,0.00,,,0.00,WUHU216HW,2013-03-21 00:35:00,
2013-03-20 20:40:00,49.9,22.4,29.80,ESE,113,0.0,0.2,34,0.00,,,0.00,WUHU216HW,2013-03-21 00:40:00,
2013-03-20 20:45:00,49.7,22.2,29.80,ESE,113,0.2,0.4,34,0.00,,,0.00,WUHU216HW,2013-03-21 00:45:00,
2013-03-20 20:50:00,49.3,23.3,29.80,ESE,113,0.0,0.4,36,0.00,,,0.00,WUHU216HW,2013-03-21 00:50:00,
2013-03-20 20:55:00,49.3,23.3,29.80,ESE,113,0.0,0.2,36,0.00,,,0.00,WUHU216HW,2013-03-21 00:55:00,
2013-03-20 21:00:00,49.0,23.0,29.79,ESE,113,0.0,0.0,36,0.00,,,0.00,WUHU216HW,2013-03-21 01:00:00,
2013-03-20 21:05:00,48.8,22.9,29.79,ESE,113,0.7,0.7,36,0.00,,,0.00,WUHU216HW,2013-03-21 01:05:00,
2013-03-20 21:10:00,48.4,23.9,29.80,SE,135,0.7,1.1,38,0.00,,,0.00,WUHU216HW,2013-03-21 01:10:00,
2013-03-20 21:15:00,47.9,23.4,29.79,SE,135,0.0,1.1,38,0.00,,,0.00,WUHU216HW,2013-03-21 01:15:00,
2013-03-20 21:20:00,47.5,23.0,29.79,SE,135,0.0,0.7,38,0.00,,,0.00,WUHU216HW,2013-03-21 01:20:00,
2013-03-20 21:25:00,47.2,22.7,29.79,SE,135,0.0,0.0,38,0.00,,,0.00,WUHU216HW,2013-03-21 01:25:00,
2013-03-20 21:30:00,47.0,22.6,29.79,SE,135,0.0,0.0,38,0.00,,,0.00,WUHU216HW,2013-03-21 01:30:00,
2013-03-20 21:35:00,46.8,23.0,29.79,ESE,113,1.1,1.1,39,0.00,,,0.00,WUHU216HW,2013-03-21 01:35:00,
2013-03-20 21:40:00,46.4,22.8,29.79,West,270,1.1,1.1,39,0.00,,,0.00,WUHU216HW,2013-03-21 01:40:00,
2013-03-20 21:45:00,46.3,23.2,29.79,East,90,0.9,1.6,40,0.00,,,0.00,WUHU216HW,2013-03-21 01:45:00,
2013-03-20 21:50:00,45.9,23.5,29.79,West,270,0.0,1.6,41,0.00,,,0.00,WUHU216HW,2013-03-21 01:50:00,
2013-03-20 21:55:00,45.7,23.9,29.79,WNW,293,0.0,1.3,42,0.00,,,0.00,WUHU216HW,2013-03-21 01:55:00,
2013-03-20 22:00:00,45.7,23.9,29.79,ESE,113,0.7,1.3,42,0.00,,,0.00,WUHU216HW,2013-03-21 02:00:00,
2013-03-20 22:05:00,45.5,23.7,29.78,ESE,113,0.0,0.9,42,0.00,,,0.00,WUHU216HW,2013-03-21 02:05:00,
2013-03-20 22:10:00,45.2,23.9,29.78,WNW,293,0.0,0.7,43,0.00,,,0.00,WUHU216HW,2013-03-21 02:10:00,
2013-03-20 22:15:00,45.0,24.3,29.78,East,90,0.4,0.4,44,0.00,,,0.00,WUHU216HW,2013-03-21 02:15:00,
2013-03-20 22:20:00,44.8,24.1,29.78,East,90,0.0,0.7,44,0.00,,,0.00,WUHU216HW,2013-03-21 02:20:00,
2013-03-20 22:25:00,44.6,23.9,29.78,East,90,0.0,0.7,44,0.00,,,0.00,WUHU216HW,2013-03-21 02:25:00,
2013-03-20 22:30:00,44.6,24.5,29.78,ESE,113,0.0,0.0,45,0.00,,,0.00,WUHU216HW,2013-03-21 02:30:00,
2013-03-20 22:35:00,44.3,24.7,29.79,SE,135,0.0,0.0,46,0.00,,,0.00,WUHU216HW,2013-03-21 02:35:00,
2013-03-20 22:40:00,44.3,24.7,29.78,SE,135,0.0,0.2,46,0.00,,,0.00,WUHU216HW,2013-03-21 02:40:00,
2013-03-20 22:45:00,44.1,24.6,29.78,SE,135,0.0,0.4,46,0.00,,,0.00,WUHU216HW,2013-03-21 02:45:00,
2013-03-20 22:50:00,44.1,25.1,29.78,SE,135,0.0,0.4,47,0.00,,,0.00,WUHU216HW,2013-03-21 02:50:00,
2013-03-20 22:55:00,43.7,24.8,29.78,SE,135,0.0,0.2,47,0.00,,,0.00,WUHU216HW,2013-03-21 02:55:00,
2013-03-20 23:00:00,43.6,24.6,29.78,SE,135,0.0,0.0,47,0.00,,,0.00,WUHU216HW,2013-03-21 03:00:00,
2013-03-20 23:05:00,43.4,24.9,29.77,SSE,158,0.0,0.0,48,0.00,,,0.00,WUHU216HW,2013-03-21 03:05:00,
2013-03-20 23:10:00,43.2,24.9,29.77,SSE,158,0.0,0.0,48,0.00,,,0.00,WUHU216HW,2013-03-21 03:10:00,
2013-03-20 23:15:00,43.2,24.9,29.77,SSE,158,0.0,0.0,48,0.00,,,0.00,WUHU216HW,2013-03-21 03:15:00,
2013-03-20 23:20:00,43.0,25.2,29.77,SSE,158,0.0,0.0,49,0.00,,,0.00,WUHU216HW,2013-03-21 03:20:00,
2013-03-20 23:25:00,43.0,25.8,29.77,SSE,158,0.0,0.0,50,0.00,,,0.00,WUHU216HW,2013-03-21 03:25:00,
2013-03-20 23:30:00,42.8,25.6,29.76,SSE,158,0.0,0.0,50,0.00,,,0.00,WUHU216HW,2013-03-21 03:30:00,
2013-03-20 23:35:00,42.8,25.6,29.76,SE,135,0.0,0.4,50,0.00,,,0.00,WUHU216HW,2013-03-21 03:35:00,
2013-03-20 23:40:00,42.8,25.6,29.76,SE,135,0.0,0.4,50,0.00,,,0.00,WUHU216HW,2013-03-21 03:40:00,
2013-03-20 23:45:00,42.8,25.6,29.75,ESE,113,0.0,0.4,50,0.00,,,0.00,WUHU216HW,2013-03-21 03:45:00,
2013-03-20 23:50:00,42.7,25.4,29.75,ESE,113,0.0,0.4,50,0.00,,,0.00,WUHU216HW,2013-03-21 03:50:00,
2013-03-20 23:55:00,42.5,25.7,29.75,NE,45,0.0,0.0,51,0.00,,,0.00,WUHU216HW,2013-03-21 03:55:00,